Pagrindinis puslapis
METAR-TAF:

METAR-TAF

Oro uostai :

Büchel, Vokietija

platuma: 50-10N, ilguma: 007-04E, Aukštis: 478 m

Dabartinis oras

Ataskaita buvo paskelbta 43 minutes, ne 10:20 UTC
Vėjas 11 kt iš Rytų/Šiaurės Rytų
Temperatūra 14°C
Drėgmė 44%
Slėgis 1021 hPa
Matomumas 10 km arba daugiau

METAR: ETSB 311020Z AUTO 06011KT 9999 // ////// 14/02 Q1021 ///

Laikas: 13:03 (11:03 UTC)


TAF: trūkstamas

Orai ataskaitas ir orų prognozės (METAR, TAF).

turimą stotys yra geltonos ir raudonos taškus žemėlapyje.

Perkelti pele per norėdami pamatyti stoties vardą.

Tada spustelėkite, norėdami matyti oro stebėjimo ir prognozės.

Norėdami pakeisti žemėlapį: spustelėkite ant žalios mygtukų su juodo kryžiaus žemyn,; žalią mygtuką su brūkšneliu, jei norite nutolinti; arba žalių rodyklių gretimoms žemėlapius.


METAR-TAF: